�N����,����,�~����,�C��,���x,�C��,����,���ϕ���,�ő�u�ԕ���,�ő厞����,���˗�,�I�_���x,�n�����x,�ő啗���N��,DTYPE
"16/05/15","00:10",0.0,16.6,83.0,1016.6,317.7,1.1,1.6,334.8,0.00,13.7,19.2,"00:01:36",1
"16/05/15","00:20",0.0,16.3,83.9,1016.4,313.3,0.6,1.1,304.3,0.00,13.6,19.0,"00:11:04",1
"16/05/15","00:30",0.0,16.0,85.2,1016.6,315.0,1.1,1.4,330.3,0.00,13.6,19.0,"00:24:48",1
"16/05/15","00:40",0.0,15.9,85.7,1016.4,314.3,1.1,1.6,326.2,0.00,13.5,19.0,"00:32:16",1
"16/05/15","00:50",0.0,15.8,85.5,1016.1,295.9,0.8,1.2,270.7,0.00,13.4,18.9,"00:45:36",1
"16/05/15","01:00",0.0,15.8,85.6,1015.9,311.0,0.8,1.6,306.2,0.00,13.4,18.8,"00:55:52",1
"16/05/15","01:10",0.0,15.8,85.7,1016.1,313.1,1.0,1.3,326.5,0.00,13.5,18.7,"01:04:56",1
"16/05/15","01:20",0.0,15.8,86.1,1016.4,330.8,1.3,1.8,334.9,0.00,13.5,18.9,"01:14:56",1
"16/05/15","01:30",0.0,15.4,86.6,1016.1,314.8,0.6,1.1,307.9,0.00,13.2,18.8,"01:20:24",1
"16/05/15","01:40",0.0,15.2,87.6,1015.9,301.6,0.8,1.1,301.9,0.00,13.2,18.7,"01:32:24",1
"16/05/15","01:50",0.0,15.3,87.9,1015.9,306.2,0.8,1.6,323.2,0.00,13.3,18.6,"01:46:24",1
"16/05/15","02:00",0.0,15.2,88.3,1015.9,332.1,1.2,1.7,331.6,0.00,13.3,18.6,"01:52:08",1
"16/05/15","02:10",0.0,15.2,88.1,1015.9,318.9,1.2,2.1,336.9,0.00,13.3,18.7,"02:06:40",1
"16/05/15","02:20",0.0,15.0,88.5,1016.1,306.5,1.0,1.4,320.9,0.00,13.2,18.6,"02:16:24",1
"16/05/15","02:30",0.0,15.1,88.8,1016.4,303.5,1.1,1.4,336.3,0.00,13.3,18.4,"02:25:20",1
"16/05/15","02:40",0.0,15.1,88.6,1016.1,311.5,1.0,1.6,322.5,0.00,13.3,18.2,"02:38:16",1
"16/05/15","02:50",0.0,14.9,89.1,1016.1,312.8,1.2,1.8,333.8,0.00,13.2,18.5,"02:40:48",1
"16/05/15","03:00",0.0,14.7,89.6,1015.9,302.2,0.8,1.4,311.8,0.00,13.1,18.4,"02:59:44",1
"16/05/15","03:10",0.0,14.6,90.2,1015.9,319.8,1.1,1.7,323.0,0.00,13.1,18.2,"03:03:36",1
"16/05/15","03:20",0.0,14.5,90.4,1015.6,300.9,0.6,1.0,300.8,0.00,13.0,18.2,"03:11:20",1
"16/05/15","03:30",0.0,14.4,90.5,1015.6,300.3,0.8,1.4,333.5,0.00,12.9,18.2,"03:24:00",1
"16/05/15","03:40",0.0,14.3,90.7,1015.4,313.0,1.1,1.4,305.0,0.00,12.8,18.2,"03:30:16",1
"16/05/15","03:50",0.0,14.3,91.1,1015.6,313.4,1.1,1.7,342.5,0.00,12.9,18.3,"03:45:52",1
"16/05/15","04:00",0.0,14.2,91.1,1015.9,301.9,1.1,1.7,324.3,0.00,12.8,18.0,"03:58:48",1
"16/05/15","04:10",0.0,14.3,91.0,1015.6,314.0,1.3,1.9,325.5,0.00,12.9,18.0,"04:06:48",1
"16/05/15","04:20",0.0,14.3,90.2,1015.6,313.2,1.3,1.8,325.2,0.00,12.8,18.1,"04:11:04",1
"16/05/15","04:30",0.0,14.2,90.2,1015.9,310.5,0.7,1.6,335.4,0.00,12.7,17.9,"04:25:04",1
"16/05/15","04:40",0.0,14.0,90.7,1015.6,313.4,1.3,1.7,312.6,0.00,12.5,18.0,"04:33:44",1
"16/05/15","04:50",0.0,13.8,91.4,1015.6,286.3,0.8,1.8,324.2,0.00,12.5,17.8,"04:49:44",1
"16/05/15","05:00",0.0,13.8,92.0,1015.9,295.1,1.2,1.9,333.4,0.00,12.6,17.9,"04:57:36",1
"16/05/15","05:10",0.0,13.9,92.1,1015.4,305.6,1.2,1.9,321.2,0.00,12.7,17.7,"05:06:48",1
"16/05/15","05:20",0.0,14.0,91.8,1015.4,300.3,1.1,1.7,318.2,0.00,12.7,17.6,"05:18:40",1
"16/05/15","05:30",0.0,14.3,91.6,1015.6,325.1,1.5,1.9,340.1,0.00,13.0,17.6,"05:26:16",1
"16/05/15","05:40",0.0,14.6,91.0,1015.6,317.0,1.2,1.8,327.2,0.00,13.2,17.6,"05:30:48",1
"16/05/15","05:50",0.0,14.8,90.6,1015.6,298.2,0.6,1.1,304.5,0.01,13.3,17.7,"05:48:00",1
"16/05/15","06:00",0.0,15.2,90.8,1015.9,303.0,0.8,1.4,312.8,0.02,13.7,17.9,"05:54:40",1
"16/05/15","06:10",0.0,15.9,89.4,1015.9,310.6,0.8,1.3,342.4,0.03,14.2,17.6,"06:03:52",1
"16/05/15","06:20",0.0,16.7,87.0,1016.1,305.5,0.6,0.9,324.6,0.04,14.6,17.8,"06:13:04",1
"16/05/15","06:30",0.0,17.6,84.3,1015.9,330.1,0.3,0.9,303.3,0.06,15.0,17.7,"06:20:40",1
"16/05/15","06:40",0.0,18.5,81.1,1015.6,303.2,0.7,1.1,297.7,0.08,15.2,17.7,"06:38:16",1
"16/05/15","06:50",0.0,19.0,76.7,1015.9,274.6,0.8,1.1,254.0,0.09,14.9,17.9,"06:42:56",1
"16/05/15","07:00",0.0,19.9,74.9,1016.1,296.0,0.6,1.1,310.4,0.13,15.4,17.9,"06:53:28",1
"16/05/15","07:10",0.0,20.4,72.4,1016.1,129.3,1.0,3.4,346.3,0.16,15.3,17.9,"07:04:24",1
"16/05/15","07:20",0.0,20.6,70.5,1016.4,96.5,1.3,2.7,111.8,0.18,15.1,18.1,"07:17:52",1
"16/05/15","07:30",0.0,20.9,68.4,1015.6,99.1,1.1,2.9,141.1,0.20,14.9,17.9,"07:29:12",1
"16/05/15","07:40",0.0,21.1,67.5,1015.9,119.3,1.3,2.7,117.7,0.24,14.9,17.9,"07:30:48",1
"16/05/15","07:50",0.0,21.6,65.3,1015.6,113.3,1.0,2.6,168.8,0.27,14.9,18.2,"07:46:40",1
"16/05/15","08:00",0.0,21.8,63.7,1015.2,111.2,1.5,3.1,103.9,0.30,14.7,18.2,"07:55:36",1
"16/05/15","08:10",0.0,22.1,62.2,1015.2,78.0,1.0,2.6,123.9,0.29,14.6,18.4,"08:07:20",1
"16/05/15","08:20",0.0,21.9,62.0,1015.4,122.0,1.2,3.5,120.0,0.28,14.3,18.3,"08:16:16",1
"16/05/15","08:30",0.0,22.2,61.1,1014.9,131.2,1.5,3.6,158.1,0.32,14.4,18.5,"08:29:44",1
"16/05/15","08:40",0.0,22.1,62.7,1014.7,179.7,2.0,4.3,179.2,0.33,14.7,18.6,"08:34:32",1
"16/05/15","08:50",0.0,22.5,61.7,1014.7,139.5,1.2,4.7,127.9,0.34,14.8,18.7,"08:48:16",1
"16/05/15","09:00",0.0,23.3,61.7,1014.5,147.2,1.3,3.2,150.4,0.41,15.6,18.9,"08:59:04",1
"16/05/15","09:10",0.0,23.1,58.4,1014.5,124.6,1.6,3.5,114.0,0.46,14.5,18.9,"09:05:28",1
"16/05/15","09:20",0.0,23.0,59.8,1014.0,142.8,1.1,3.2,205.1,0.37,14.8,19.1,"09:13:04",1
"16/05/15","09:30",0.0,23.1,57.3,1014.0,91.7,1.1,2.7,145.5,0.37,14.2,19.2,"09:28:48",1
"16/05/15","09:40",0.0,23.1,57.4,1014.0,134.8,1.5,4.1,125.5,0.40,14.3,19.3,"09:34:24",1
"16/05/15","09:50",0.0,23.5,59.6,1013.8,167.9,1.3,2.8,127.3,0.34,15.2,19.5,"09:47:28",1
"16/05/15","10:00",0.0,24.3,56.0,1013.3,140.1,1.0,2.1,126.7,0.49,15.0,19.7,"09:54:24",1
"16/05/15","10:10",0.0,24.6,54.2,1012.8,160.1,1.6,2.9,177.7,0.53,14.8,19.7,"10:09:04",1
"16/05/15","10:20",0.0,24.7,52.2,1012.8,126.3,1.3,3.6,124.3,0.56,14.3,20.0,"10:18:32",1
"16/05/15","10:30",0.0,24.5,51.1,1012.6,147.4,1.7,4.5,141.7,0.55,13.8,20.1,"10:24:16",1
"16/05/15","10:40",0.0,24.9,54.7,1012.6,125.5,1.6,3.9,122.7,0.55,15.2,20.2,"10:33:12",1
"16/05/15","10:50",0.0,25.3,52.7,1012.1,138.9,1.0,2.9,90.9,0.54,15.0,20.4,"10:40:02",1
"16/05/15","11:00",0.0,25.3,52.4,1012.3,149.4,2.5,5.2,136.4,0.61,14.9,20.5,"10:59:12",1
"16/05/15","11:10",0.0,24.8,50.8,1011.9,210.8,2.2,5.1,217.1,0.53,14.0,20.9,"11:02:08",1
"16/05/15","11:20",0.0,25.5,50.9,1011.9,68.9,1.3,2.9,215.6,0.51,14.6,20.7,"11:11:52",1
"16/05/15","11:30",0.0,26.0,51.3,1011.9,147.4,1.6,4.3,123.7,0.65,15.2,21.2,"11:29:12",1
"16/05/15","11:40",0.0,26.5,46.8,1011.9,170.5,1.1,4.2,221.2,0.63,14.3,21.2,"11:34:08",1
"16/05/15","11:50",0.0,26.6,48.2,1012.1,122.9,1.8,5.8,155.4,0.66,14.8,21.6,"11:42:32",1
"16/05/15","12:00",0.0,26.2,47.9,1011.9,120.2,1.6,5.0,120.2,0.58,14.3,21.6,"11:59:52",1
"16/05/15","12:10",0.0,26.5,52.0,1011.4,139.6,2.0,4.2,138.6,0.63,15.9,22.0,"12:05:44",1
"16/05/15","12:20",0.0,26.7,48.0,1011.4,172.5,2.2,5.5,230.9,0.67,14.8,21.9,"12:19:04",1
"16/05/15","12:30",0.0,26.3,46.0,1011.2,172.4,2.1,5.0,154.9,0.41,13.8,22.1,"12:25:12",1
"16/05/15","12:40",0.0,26.4,45.8,1011.2,129.8,1.5,5.0,205.3,0.41,13.8,22.2,"12:39:28",1
"16/05/15","12:50",0.0,26.0,48.2,1010.7,151.1,1.1,4.3,112.4,0.31,14.3,22.2,"12:49:04",1
"16/05/15","13:00",0.0,26.0,45.9,1010.4,141.6,2.0,3.9,185.9,0.35,13.5,22.5,"12:50:02",1
"16/05/15","13:10",0.0,27.0,45.6,1010.2,198.2,2.0,4.2,230.9,0.58,14.3,22.5,"13:00:32",1
"16/05/15","13:20",0.0,27.6,45.6,1010.2,151.5,2.0,3.9,154.2,0.62,14.9,22.5,"13:11:36",1
"16/05/15","13:30",0.0,27.6,45.0,1010.7,159.0,1.8,3.2,178.2,0.59,14.6,22.5,"13:28:56",1
"16/05/15","13:40",0.0,27.5,45.6,1010.2,153.6,2.6,6.7,201.5,0.53,14.8,22.7,"13:30:56",1
"16/05/15","13:50",0.0,27.7,42.4,1009.7,173.0,2.6,5.1,211.6,0.54,13.8,22.7,"13:43:12",1
"16/05/15","14:00",0.0,27.0,43.2,1009.7,168.8,2.1,4.8,209.4,0.37,13.5,22.6,"13:51:28",1
"16/05/15","14:10",0.0,27.7,44.1,1009.7,163.5,1.3,5.1,138.3,0.42,14.4,22.5,"14:08:56",1
"16/05/15","14:20",0.0,27.4,43.7,1009.7,209.7,1.2,3.2,176.0,0.40,14.0,22.7,"14:11:28",1
"16/05/15","14:30",0.0,28.0,41.8,1009.7,184.4,1.7,4.2,228.0,0.39,13.9,22.9,"14:29:04",1
"16/05/15","14:40",0.0,27.9,45.3,1009.5,127.3,2.1,11.2,166.5,0.38,15.0,23.0,"14:31:12",1
"16/05/15","14:50",0.0,26.9,45.4,1009.0,174.5,1.3,4.7,221.3,0.31,14.1,23.0,"14:47:20",1
"16/05/15","15:00",0.0,26.4,48.5,1009.3,150.2,1.5,3.2,121.9,0.19,14.7,23.1,"14:56:56",1
"16/05/15","15:10",0.0,26.7,47.0,1008.8,86.9,1.2,3.3,329.4,0.20,14.5,23.1,"15:08:00",1
"16/05/15","15:20",0.0,26.3,49.7,1008.1,92.6,1.1,2.7,73.7,0.12,15.0,22.9,"15:15:36",1
"16/05/15","15:30",0.0,25.8,51.6,1008.3,121.1,1.6,4.1,115.4,0.11,15.1,23.0,"15:22:48",1
"16/05/15","15:40",0.0,25.8,52.2,1008.8,117.2,1.2,2.6,82.8,0.11,15.3,22.9,"15:32:32",1
"16/05/15","15:50",0.0,26.0,51.8,1008.8,110.7,1.8,4.3,119.7,0.14,15.4,23.0,"15:45:28",1
"16/05/15","16:00",0.0,25.7,53.3,1008.8,127.6,2.1,4.4,134.9,0.15,15.5,22.8,"15:58:08",1
"16/05/15","16:10",0.0,25.9,48.1,1009.0,138.2,1.6,4.4,127.0,0.18,14.1,22.7,"16:05:44",1
"16/05/15","16:20",0.0,25.8,49.5,1008.8,263.1,1.2,2.9,232.0,0.13,14.5,22.6,"16:11:12",1
"16/05/15","16:30",0.0,25.7,50.5,1009.0,262.6,1.1,2.5,236.3,0.11,14.7,22.7,"16:20:16",1
"16/05/15","16:40",0.0,25.6,49.9,1009.0,257.7,1.6,3.3,233.4,0.09,14.4,22.5,"16:32:32",1
"16/05/15","16:50",0.0,25.6,49.4,1008.8,229.2,2.0,3.7,212.5,0.12,14.3,22.6,"16:44:48",1
"16/05/15","17:00",0.0,25.6,51.1,1008.8,227.8,1.8,5.2,226.7,0.08,14.8,22.3,"16:51:20",1
"16/05/15","17:10",0.0,25.5,50.9,1008.6,250.8,1.8,5.1,228.8,0.08,14.6,22.5,"17:03:04",1
"16/05/15","17:20",0.0,25.5,51.6,1008.8,229.0,1.8,3.5,234.2,0.07,14.8,22.4,"17:14:16",1
"16/05/15","17:30",0.0,25.2,51.5,1008.6,217.6,2.5,5.0,225.3,0.04,14.5,22.3,"17:27:44",1
"16/05/15","17:40",0.0,24.8,52.7,1008.8,212.6,3.0,5.0,202.8,0.01,14.5,22.4,"17:36:32",1
"16/05/15","17:50",0.0,24.6,53.0,1009.0,233.0,3.1,6.0,217.3,0.01,14.4,22.2,"17:42:00",1
"16/05/15","18:00",0.0,24.7,53.6,1009.3,230.2,2.3,4.3,229.3,0.01,14.7,22.1,"17:57:12",1
"16/05/15","18:10",0.0,24.6,53.7,1009.0,214.9,2.5,4.4,205.5,0.02,14.6,22.1,"18:07:28",1
"16/05/15","18:20",0.0,24.3,54.4,1009.0,226.4,2.7,6.0,231.8,0.00,14.6,21.9,"18:17:28",1
"16/05/15","18:30",0.0,24.0,55.6,1009.5,234.9,1.8,3.5,221.4,0.00,14.6,21.9,"18:20:24",1
"16/05/15","18:40",0.0,24.0,56.4,1009.3,246.6,1.6,2.8,231.7,0.00,14.8,21.9,"18:38:16",1
"16/05/15","18:50",0.0,23.8,56.8,1009.5,241.3,2.1,5.7,234.2,0.00,14.8,21.7,"18:49:44",1
"16/05/15","19:00",0.0,23.6,57.6,1009.7,261.1,1.7,4.0,233.7,0.00,14.8,21.7,"18:53:28",1
"16/05/15","19:10",0.0,23.5,58.6,1009.5,235.6,1.7,3.7,238.6,0.00,15.0,21.6,"19:02:56",1
"16/05/15","19:20",0.0,23.3,59.0,1010.2,222.1,2.0,3.5,224.6,0.00,14.9,21.7,"19:16:48",1
"16/05/15","19:30",0.0,23.1,60.4,1010.0,217.8,2.3,3.6,232.4,0.00,15.1,21.4,"19:23:52",1
"16/05/15","19:40",0.0,22.9,61.1,1010.2,193.3,1.8,3.5,205.4,0.00,15.1,21.4,"19:30:40",1
"16/05/15","19:50",0.0,22.7,61.3,1010.7,162.9,1.6,3.5,201.1,0.00,14.9,21.4,"19:42:48",1
"16/05/15","20:00",0.0,22.3,63.3,1010.4,110.5,1.2,3.1,127.6,0.00,15.0,21.4,"19:50:48",1
"16/05/15","20:10",0.0,22.1,63.7,1010.2,85.0,1.1,2.7,156.2,0.00,14.9,21.3,"20:04:16",1
"16/05/15","20:20",0.0,21.9,64.5,1010.4,95.1,1.0,2.6,131.2,0.00,14.9,21.3,"20:13:28",1
"16/05/15","20:30",0.0,21.7,65.6,1010.7,101.0,1.2,3.1,108.0,0.00,15.0,21.2,"20:25:36",1
"16/05/15","20:40",0.0,21.5,66.1,1010.9,106.8,1.1,3.9,129.2,0.00,14.9,21.0,"20:37:28",1
"16/05/15","20:50",0.0,21.3,67.1,1011.2,115.1,1.3,4.3,129.5,0.00,15.0,21.0,"20:44:00",1
"16/05/15","21:00",0.0,21.1,68.0,1011.2,101.8,1.2,3.1,102.0,0.00,15.0,20.9,"20:57:12",1
"16/05/15","21:10",0.0,20.9,68.0,1011.2,97.7,1.0,2.5,114.5,0.00,14.8,20.8,"21:00:02",1
"16/05/15","21:20",0.0,20.7,69.2,1011.2,106.4,1.1,3.1,106.7,0.00,14.9,20.7,"21:11:04",1
"16/05/15","21:30",0.0,20.6,69.2,1010.9,98.4,1.0,2.9,120.4,0.00,14.8,20.8,"21:25:04",1
"16/05/15","21:40",0.0,20.5,69.1,1011.2,62.4,0.8,1.8,47.4,0.00,14.7,20.8,"21:32:32",1
"16/05/15","21:50",0.0,20.5,69.3,1011.4,52.8,0.8,2.4,76.9,0.00,14.7,20.7,"21:46:24",1
"16/05/15","22:00",0.0,20.4,69.9,1011.2,31.2,0.7,2.4,105.5,0.00,14.8,20.6,"21:59:12",1
"16/05/15","22:10",0.0,20.3,69.9,1010.9,31.1,1.0,2.4,357.4,0.00,14.7,20.6,"22:00:56",1
"16/05/15","22:20",0.0,20.2,70.5,1010.9,65.2,0.7,1.7,122.8,0.00,14.7,20.3,"22:14:32",1
"16/05/15","22:30",0.0,20.0,70.8,1011.2,68.5,0.7,1.9,97.3,0.00,14.6,20.5,"22:20:40",1
"16/05/15","22:40",0.0,19.9,71.3,1010.7,57.3,1.0,2.0,6.3,0.00,14.6,20.3,"22:30:48",1
"16/05/15","22:50",0.0,19.6,72.3,1010.9,12.1,0.8,2.1,111.6,0.00,14.5,20.5,"22:40:08",1
"16/05/15","23:00",0.0,19.6,73.1,1011.2,43.2,1.1,2.8,46.6,0.00,14.7,20.4,"22:58:00",1
"16/05/15","23:10",0.0,19.5,74.1,1010.9,105.5,1.1,2.4,116.3,0.00,14.8,20.2,"23:07:52",1
"16/05/15","23:20",0.0,19.4,73.6,1011.2,348.8,0.7,2.2,71.8,0.00,14.6,20.3,"23:17:52",1
"16/05/15","23:30",0.0,19.3,74.1,1011.2,4.6,1.0,2.2,323.2,0.00,14.6,20.0,"23:22:24",1
"16/05/15","23:40",0.0,19.2,74.8,1011.2,3.9,1.0,2.1,351.0,0.00,14.7,20.2,"23:30:48",1
"16/05/15","23:50",0.0,19.1,74.9,1011.2,15.8,1.1,3.4,108.0,0.00,14.6,20.1,"23:40:32",1
"16/05/15","24:00",0.0,19.1,75.3,1010.7,1.2,0.8,2.7,352.9,0.00,14.7,20.2,"23:53:36",1
